• In Uzbekistan
  • List of Countries
  • For 7 days
  • Water Temperature
  • Satellite Maps
  • Weather Map
  • Weather Widgets
  • user-avatar
    Login

    Hourly Weather Pilis

    Today, 23 November, Thursday

    Time Temperature Precipitation Wind Pressure Humidity
    00:00 +7°C° 0 mm 1 mps 750 mmHg 89%
    01:00 +7°C° 0 mm 1 mps 750 mmHg 90%
    02:00 +7°C° 0 mm 1 mps 750 mmHg 91%
    03:00 +6°C° 0 mm 1 mps 750 mmHg 92%
    04:00 +5°C° 0 mm 2 mps 750 mmHg 93%
    05:00 +5°C° 0 mm 2 mps 750 mmHg 94%
    06:00 +5°C° 0 mm 2 mps 750 mmHg 94%
    07:00 +4°C° 0 mm 2 mps 750 mmHg 95%
    08:00 +5°C° 0 mm 2 mps 751 mmHg 92%
    09:00 +7°C° 0 mm 2 mps 751 mmHg 89%
    10:00 +8°C° 0 mm 2 mps 751 mmHg 85%
    11:00 +9°C° 0 mm 2 mps 751 mmHg 82%
    12:00 +10°C° 0 mm 2 mps 751 mmHg 79%
    13:00 +10°C° 0 mm 2 mps 751 mmHg 75%
    14:00 +10°C° 0 mm 2 mps 751 mmHg 77%
    15:00 +10°C° 0 mm 2 mps 751 mmHg 79%
    16:00 +9°C° 0 mm 2 mps 751 mmHg 81%
    17:00 +9°C° 0 mm 2 mps 751 mmHg 81%
    18:00 +9°C° 0 mm 2 mps 752 mmHg 81%
    19:00 +8°C° 0 mm 2 mps 752 mmHg 82%
    20:00 +8°C° 0 mm 2 mps 752 mmHg 81%
    21:00 +8°C° 0 mm 2 mps 752 mmHg 81%
    22:00 +8°C° 0 mm 2 mps 752 mmHg 80%
    23:00 +8°C° 0 mm 2 mps 752 mmHg 81%

    Tomorrow, 24 November, Friday

    Time Temperature Precipitation Wind Pressure Humidity
    00:00 +8°C° 0 mm 2 mps 752 mmHg 82%
    01:00 +8°C° 0 mm 2 mps 752 mmHg 82%
    02:00 +7°C° 0 mm 2 mps 752 mmHg 84%
    03:00 +7°C° 0 mm 2 mps 752 mmHg 85%
    04:00 +7°C° 0 mm 2 mps 752 mmHg 87%
    05:00 +8°C° 0 mm 1 mps 752 mmHg 87%
    06:00 +8°C° 0 mm 1 mps 752 mmHg 88%
    07:00 +7°C° 0 mm 1 mps 752 mmHg 89%
    08:00 +8°C° 0 mm 1 mps 752 mmHg 86%
    09:00 +9°C° 0 mm 1 mps 753 mmHg 84%
    10:00 +9°C° 0 mm 1 mps 753 mmHg 81%
    11:00 +10°C° 0 mm 1 mps 753 mmHg 78%
    12:00 +11°C° 0 mm 1 mps 753 mmHg 75%
    13:00 +11°C° 0 mm 1 mps 753 mmHg 73%
    14:00 +11°C° 0 mm 1 mps 752 mmHg 75%
    15:00 +10°C° 0 mm 1 mps 752 mmHg 78%
    16:00 +10°C° 0 mm 1 mps 752 mmHg 80%
    17:00 +10°C° 0 mm 1 mps 752 mmHg 82%
    18:00 +9°C° 0 mm 1 mps 753 mmHg 84%
    19:00 +9°C° 0 mm 1 mps 753 mmHg 86%
    20:00 +8°C° 0 mm 1 mps 753 mmHg 87%
    21:00 +8°C° 0 mm 1 mps 753 mmHg 89%
    22:00 +7°C° 0 mm 1 mps 753 mmHg 90%
    23:00 +7°C° 0 mm 1 mps 753 mmHg 91%

    Day after tomorrow, 25 November, Saturday

    Time Temperature Precipitation Wind Pressure Humidity
    00:00 +7°C° 0 mm 1 mps 753 mmHg 91%
    01:00 +7°C° 0 mm 1 mps 752 mmHg 92%
    02:00 +6°C° 0 mm 1 mps 752 mmHg 92%
    03:00 +5°C° 0 mm 2 mps 752 mmHg 93%
    04:00 +5°C° 0 mm 2 mps 752 mmHg 93%
    05:00 +5°C° 0 mm 2 mps 751 mmHg 93%
    06:00 +5°C° 0 mm 2 mps 751 mmHg 94%
    07:00 +5°C° 0 mm 2 mps 751 mmHg 94%
    08:00 +5°C° 0 mm 3 mps 751 mmHg 89%
    09:00 +7°C° 0 mm 3 mps 751 mmHg 85%
    10:00 +8°C° 0 mm 3 mps 751 mmHg 80%
    11:00 +8°C° 0 mm 4 mps 750 mmHg 76%
    12:00 +10°C° 0 mm 4 mps 749 mmHg 71%
    13:00 +11°C° 0 mm 4 mps 749 mmHg 67%
    14:00 +11°C° 0 mm 4 mps 748 mmHg 67%
    15:00 +10°C° 0 mm 4 mps 748 mmHg 67%
    16:00 +10°C° 0 mm 4 mps 747 mmHg 68%
    17:00 +10°C° 0.1 mm 4 mps 747 mmHg 67%
    18:00 +9°C° 0.1 mm 5 mps 747 mmHg 67%
    19:00 +9°C° 0.1 mm 5 mps 747 mmHg 66%
    20:00 +9°C° 0.4 mm 5 mps 747 mmHg 69%
    21:00 +9°C° 0.4 mm 5 mps 747 mmHg 72%
    22:00 +9°C° 0.4 mm 5 mps 747 mmHg 75%
    23:00 +8°C° 0.8 mm 4 mps 747 mmHg 79%

    26 November, Sunday

    Time Temperature Precipitation Wind Pressure Humidity
    00:00 +8°C° 0.8 mm 4 mps 747 mmHg 83%
    01:00 +8°C° 0.8 mm 4 mps 748 mmHg 87%
    02:00 +9°C° 0.6 mm 3 mps 748 mmHg 87%
    03:00 +8°C° 0.6 mm 3 mps 748 mmHg 86%
    04:00 +8°C° 0.6 mm 2 mps 748 mmHg 86%
    05:00 +8°C° 0.1 mm 3 mps 748 mmHg 81%
    06:00 +7°C° 0.1 mm 4 mps 748 mmHg 76%
    07:00 +7°C° 0.1 mm 5 mps 749 mmHg 70%
    08:00 +7°C° 0 mm 5 mps 749 mmHg 68%
    09:00 +7°C° 0 mm 5 mps 749 mmHg 66%
    10:00 +5°C° 0 mm 6 mps 749 mmHg 64%
    11:00 +7°C° 0 mm 6 mps 749 mmHg 64%
    12:00 +7°C° 0 mm 5 mps 749 mmHg 64%
    13:00 +7°C° 0 mm 5 mps 749 mmHg 64%
    14:00 +7°C° 0 mm 5 mps 749 mmHg 66%
    15:00 +7°C° 0 mm 5 mps 750 mmHg 69%
    16:00 +6°C° 0 mm 5 mps 750 mmHg 71%
    17:00 +6°C° 0.3 mm 5 mps 750 mmHg 72%
    18:00 +5°C° 0.3 mm 5 mps 750 mmHg 73%
    19:00 +5°C° 0.3 mm 5 mps 751 mmHg 74%
    20:00 +4°C° 0.7 mm 6 mps 751 mmHg 74%
    21:00 +3°C° 0.7 mm 6 mps 751 mmHg 75%
    22:00 +3°C° 0.7 mm 6 mps 752 mmHg 75%
    23:00 +3°C° 0.3 mm 6 mps 752 mmHg 74%

    27 November, Monday

    Time Temperature Precipitation Wind Pressure Humidity
    00:00 +3°C° 0.3 mm 6 mps 752 mmHg 73%
    01:00 +2°C° 0.3 mm 6 mps 752 mmHg 72%
    02:00 +2°C° 0 mm 6 mps 752 mmHg 71%
    03:00 +2°C° 0 mm 5 mps 752 mmHg 71%
    04:00 +1°C° 0 mm 5 mps 753 mmHg 70%
    05:00 +1°C° 0 mm 5 mps 753 mmHg 70%
    06:00 0°C° 0 mm 5 mps 753 mmHg 70%
    07:00 0°C° 0 mm 5 mps 754 mmHg 71%
    08:00 0°C° 0 mm 5 mps 754 mmHg 68%
    09:00 +1°C° 0 mm 5 mps 754 mmHg 66%
    10:00 +2°C° 0 mm 5 mps 754 mmHg 63%
    11:00 +2°C° 0 mm 5 mps 754 mmHg 62%
    12:00 +3°C° 0 mm 5 mps 754 mmHg 60%
    13:00 +3°C° 0 mm 5 mps 754 mmHg 58%
    14:00 +3°C° 0 mm 5 mps 754 mmHg 61%
    15:00 +3°C° 0 mm 4 mps 754 mmHg 64%
    16:00 +2°C° 0 mm 3 mps 754 mmHg 67%
    17:00 +2°C° 0 mm 3 mps 754 mmHg 69%
    18:00 +1°C° 0 mm 3 mps 754 mmHg 71%
    19:00 +1°C° 0 mm 3 mps 754 mmHg 73%
    20:00 +1°C° 0 mm 3 mps 754 mmHg 74%
    21:00 +1°C° 0 mm 2 mps 754 mmHg 75%
    22:00 +1°C° 0 mm 2 mps 754 mmHg 76%
    23:00 +1°C° 0 mm 2 mps 754 mmHg 77%

    28 November, Tuesday

    Time Temperature Precipitation Wind Pressure Humidity
    00:00 +1°C° 0 mm 2 mps 754 mmHg 78%
    01:00 -1°C° 0 mm 2 mps 754 mmHg 79%
    02:00 -1°C° 0 mm 2 mps 754 mmHg 79%
    03:00 -1°C° 0 mm 2 mps 753 mmHg 79%
    04:00 -1°C° 0 mm 2 mps 753 mmHg 80%
    05:00 -1°C° 0 mm 2 mps 753 mmHg 79%
    06:00 -1°C° 0 mm 2 mps 753 mmHg 79%
    07:00 -1°C° 0 mm 2 mps 753 mmHg 79%
    08:00 +1°C° 0 mm 2 mps 753 mmHg 73%
    09:00 +1°C° 0 mm 3 mps 753 mmHg 68%
    10:00 +2°C° 0 mm 3 mps 753 mmHg 62%
    11:00 +3°C° 0 mm 3 mps 753 mmHg 59%
    12:00 +3°C° 0 mm 4 mps 752 mmHg 57%
    13:00 +4°C° 0 mm 4 mps 752 mmHg 54%
    14:00 +3°C° 0 mm 4 mps 752 mmHg 58%
    15:00 +2°C° 0 mm 3 mps 751 mmHg 63%
    16:00 +1°C° 0 mm 3 mps 751 mmHg 67%
    17:00 +1°C° 0 mm 3 mps 751 mmHg 69%
    18:00 +1°C° 0 mm 3 mps 751 mmHg 71%
    19:00 0°C° 0 mm 3 mps 751 mmHg 74%
    20:00 0°C° 0 mm 3 mps 750 mmHg 75%
    21:00 0°C° 0 mm 3 mps 750 mmHg 76%
    22:00 -1°C° 0 mm 3 mps 750 mmHg 77%
    23:00 -1°C° 0 mm 3 mps 750 mmHg 78%
    Show more